Regional Weather Roundup
Issued by NWS

Home | Current Version | Previous Version | Graphics & Text | Print | Product List | Glossary On
Versions: 1 2 3 4 5 6 7 8 9 10 11 12 13 14 15 16 17 18 19 20 21 22 23 24 25 26 27 28 29 30 31 32 33 34 35 36 37 38 39 40 41 42 43 44 45 46 47 48 49 50
000
ASUS45 KABQ 191901
RWRNM
WEATHER ROUNDUP FOR NEW MEXICO
NATIONAL WEATHER SERVICE ALBUQUERQUE NM
1200 PM MST FRI DEC 19 2014

NOTE: "FAIR" MEANS FEW OR NO CLOUDS BELOW 12,000 FEET AGL WITH NO
       SIGNIFICANT WEATHER OR OBSTRUCTIONS TO VISION.

      THIS PRODUCT IS RELEASED AS TWO VERSIONS.  ONE VERSION NEAR
      THE TOP OF THE HOUR CONTAINING PRELIMINARY DATA FROM ALBUQUERQUE
      AND OTHER STATIONS.  A FINAL VERSION WITH ADDITIONAL DATA IS
      ISSUED ABOUT 10 MINUTES AFTER THE HOUR.

NMZ501-503-504-510>518-192000-
NORTHWEST PLATEAU/NORTHCENTRAL MOUNTAINS

CITY           SKY/WX    TMP DP  RH WIND       PRES   REMARKS
FARMINGTON     SUNNY     29  26  89 CALM      30.23F
SANTA FE       SUNNY     38  22  52 NW14      30.16F WCI  30
TAOS           MOSUNNY   30  21  69 SW6       30.17F WCI  24
ANGEL FIRE     FAIR      29  17  60 SW8       30.12F WCI  21

$$
NMZ402-403-502-505>509-192000-
WESTCENTRAL MOUNTAINS/SOUTHWEST MOUNTAINS

CITY           SKY/WX    TMP DP  RH WIND       PRES   REMARKS
GALLUP         SUNNY     32  27  81 CALM      30.24F
GRANTS         MOSUNNY   36  24  62 N9        30.24F WCI  29
SILVER CITY    SUNNY     45  27  49 SW5       30.23F

$$
NMZ407-409-411-412-192000-
SOUTHERN DESERTS

CITY           SKY/WX    TMP DP  RH WIND       PRES   REMARKS
LORDSBURG      CLOUDY    37  36  93 N3        30.24F
DEMING         SUNNY     48  30  49 E7        30.22F
HOLLOMAN AFB   SUNNY     48  32  55 NW13      30.19F
ALAMOGORDO     SUNNY     48  32  53 NW13      30.20F
T OR C         SUNNY     44  29  55 VRB5      30.21F

$$
NMZ519>523-192000-
CENTRAL VALLEYS/CENTRAL HIGHLANDS

CITY           SKY/WX    TMP DP  RH WIND       PRES   REMARKS
ALBUQUERQUE    MOSUNNY   42  25  50 NW13      30.21F
DOUBLE EAGLE   MOSUNNY   39  25  56 NW16      30.21F WCI  30
MORIARTY ARPT  FAIR      41  21  44 N16G22    30.16F
CLINES CORNERS SUNNY     36  23  59 NW23G30   30.10F WCI  24
BELEN          FAIR      43  26  50 N7        30.21F
SOCORRO        FAIR      44  29  54 N8        30.21F

$$
NMZ524>526-539-540-192000-
SOUTHCENTRAL MOUNTAINS

CITY           SKY/WX    TMP DP  RH WIND       PRES   REMARKS
RUIDOSO        SUNNY     39  21  48 NW13G20   30.17F WCI  32

$$
NMZ527>531-192000-
NORTHEAST HIGHLANDS/NORTHEAST PLAINS

CITY           SKY/WX    TMP DP  RH WIND       PRES   REMARKS
LAS VEGAS      SUNNY     42  15  33 SW7       30.09F
RATON          SUNNY     42  18  37 VRB5      30.07F
CLAYTON        MOSUNNY   48  29  47 CALM      30.08F

$$
NMZ532>537-192000-
EASTCENTRAL PLAINS

CITY           SKY/WX    TMP DP  RH WIND       PRES   REMARKS
TUCUMCARI      CLOUDY    38  30  73 S5        30.12F WCI  34
CANNON AFB     SUNNY     42  32  65 VRB1      30.11F
CLOVIS AIRPORT CLOUDY    43  30  61 CALM      30.11F

$$
NMZ028-029-538-192000-
SOUTHEAST PLAINS

CITY           SKY/WX    TMP DP  RH WIND       PRES   REMARKS
ROSWELL        SUNNY     56  25  30 MISG      30.12F
ARTESIA        SUNNY     54  32  43 NE3       30.14F
CARLSBAD       SUNNY     57  32  38 VRB3      30.13F
HOBBS          SUNNY     50  37  62 CALM      30.14F


$$



USA.gov is the U.S. government's official web portal to all federal, state and local government web resources and services.